{"data":{"norad_id":62729,"epoch":"2026-05-25T05:14:25.569600Z","epoch_age_seconds":66849,"freshness":"FRESH","line1":"1 62729U 25013A   26145.21835150  .00031420  00000+0  96204-3 0  9993","line2":"2 62729  97.6391 323.0761 0008675  21.1870 338.9729 15.33725682 74431","mean_motion":15.33725682,"eccentricity":0.0008675,"inclination_deg":97.6391,"raan_deg":323.0761,"arg_perigee_deg":21.187,"mean_anomaly_deg":338.9729,"bstar":0.00096204,"rev_number":7443,"period_min":93.88901919685,"perigee_km":458.77202148249,"apogee_km":470.64435788659,"semimajor_km":6842.8451896845,"source":"CELESTRAK","updated_at":"2026-05-25T13:38:03.210790Z"}}